APSTAR 7

导读

APSTAR 7(亚太七号)卫星由中国相关机构运营,于2012年3月31日发射。该卫星由法国泰雷兹阿莱尼亚宇航公司制造,定点于东经76.5度轨道,接替原亚太2R卫星。它配备28个C频段和28个Ku频段转发器,覆盖亚洲、中东、非洲、欧洲及澳大利亚,可提供广播电视传输、跨洲际通信等商用服务。

基本信息
目录编号:
38107
目录名称:
APSTAR 7
国际标识:
2012-013A
轨道中心:
EARTH
卫星名称:
APSTAR 7
卫星全名:
--
卫星状态:
在轨 (已飞行5195 天)
发射日期:
2012-03-31 UTC
国别 :
中国 (CN)
星等 :
--
轨道信息
数据来源 国际轨道数据 AOE轨道数据
星历时间 2026-06-20T21:11:38+0800
17小时前
查看轨道信息
2026-06-21T07:00:00+0800
7小时前
查看轨道信息
半长轴 42164.784km 42164.672km
偏心率 0.0002635 0.0002796
轨道倾角 0.033° 0.033°
近地点辐角 15.832° 9.003°
升交点赤经 82.112° 87.441°
平近点角 85.219° 234.213°
近地点 35775.536km 35774.745km
远地点 35797.758km 35798.325km
周期 1436.100分钟 1436.094分钟
每日圈数 1.002716 1.00272
详细信息
使用方式:
暂无
2D轨道图
3D轨道图
轨道高度分析图
轨道倾角分析图
轨道综合分析图
查看轨道综合分析图